Location: Unspecified
(43.4680°N, 87.1740°E)
Time: 20:29:41
(UTC+00:00)

NOSS 0 Rocket - Pass Details

Date: 02 August 2021
Orbit: 936 x 954 km, 70.0° (Epoch: 22 September)

Event Time Altitude Azimuth Distance (km) Brightness Sun altitude
Rises 15:27:08 0° 341° (NNW) 3,637 8.2 -17.5°
Reaches altitude 10° 15:30:22 10° 356° (N) 2,687 7.0 -17.9°
Maximum altitude 15:35:01 21° 45° (NE) 1,983 5.7 -18.5°
Enters shadow 15:38:41 13° 86° (E) 2,437 5.7 -18.9°
